Wind_Speed
7 7 7 7 8 7 6 7 7 6 6 6 6 7 7 8 9 9 9 9 10 10 9 9 10 9 9 9 8 8 8 7 7 7 7 8 8 8 8 8 8 8 8
9 9 9 9 9 8 8 8 8 8 8 8 8 8 9 9 10 10 11 11 11 11 10 10 11 10 9 10 9 9 8 8 8 8 8 8 9 9 9 9 9 10 9
9 10 10 10 10 9 9 9 9 9 8 9 10 10 10 11 11 11 12 12 12 12 12 11 12 11 11 11 10 10 10 9 9 9 9 9 10 10 10 10 11 11 11
10 10 11 11 10 10 10 10 10 10 10 10 11 11 11 12 12 12 12 13 13 13 12 12 12 12 12 12 11 11 11 11 11 10 10 11 11 11 11 11 12 12 11
11 12 12 11 12 11 10 10 11 10 11 11 12 12 12 12 12 13 13 14 14 13 13 12 13 13 12 12 12 12 12 13 12 12 12 12 11 12 12 12 12 12 12
12 12 11 11 11 11 10 10 11 11 12 12 12 12 13 13 14 14 14 15 15 14 14 13 13 14 13 14 13 13 13 14 13 14 14 14 13 13 13 13 13 13 13
10 11 11 10 10 11 11 12 12 12 12 13 13 13 14 15 15 15 15 16 15 15 15 15 15 15 15 15 15 15 14 15 15 15 15 15 15 15 14 14 15 15 15
10 11 11 10 10 12 12 12 12 12 13 14 15 15 16 16 16 16 16 16 17 16 16 16 16 16 16 17 17 16 16 16 16 16 16 16 16 16 15 15 16 16 16
10 10 10 10 10 11 12 13 13 13 13 14 16 16 17 17 17 17 17 17 17 17 17 17 17 17 18 18 18 18 18 18 17 17 17 17 18 18 17 17 17 17 17
10 10 10 11 11 11 12 13 13 13 13 14 15 16 16 17 17 17 18 18 17 17 17 18 18 18 18 18 18 19 19 19 19 19 19 19 19 19 19 18 19 18 19
10 10 10 11 12 13 13 14 14 14 14 14 15 16 17 17 17 18 19 19 18 19 19 19 19 20 20 19 19 20 20 20 20 20 20 20 20 20 20 20 20 20 20
11 11 11 11 12 13 14 14 14 15 16 16 16 17 17 17 18 19 19 19 19 20 20 20 21 21 21 20 20 21 21 20 21 22 21 21 21 22 21 21 22 22 21
12 12 12 11 12 13 14 14 15 15 16 17 17 16 17 17 18 18 18 19 20 21 21 22 22 22 22 22 21 20 20 20 21 21 22 22 23 23 23 22 23 23 22
14 13 13 12 12 13 14 15 16 16 16 16 16 17 17 17 18 17 17 18 19 20 21 20 21 21 21 21 21 21 20 20 21 21 22 23 24 24 24 23 23 23 23
14 14 13 13 13 13 14 15 15 15 15 16 16 16 16 16 17 18 18 18 19 20 21 21 21 20 20 21 20 21 21 21 22 23 23 23 24 24 24 24 24 23 23
14 12 13 13 13 13 14 15 15 15 16 16 16 16 16 17 17 17 18 19 19 19 18 19 20 20 19 20 21 21 22 22 22 23 23 23 23 24 24 24 24 23 23
12 12 13 13 13 13 14 14 15 15 16 17 17 17 17 17 17 17 17 18 19 19 19 19 19 19 20 21 21 21 22 22 22 23 23 23 23 24 24 23 23 24 24
12 12 13 13 13 13 14 14 15 16 17 17 17 17 17 17 17 17 18 18 18 20 20 20 19 20 20 20 21 21 22 22 22 22 23 24 24 24 24 24 25 25 25
11 12 13 13 13 14 13 13 15 16 16 16 16 17 17 18 18 18 18 18 19 20 20 21 20 19 19 20 21 21 22 22 22 23 23 23 24 24 25 25 26 26 26
11 13 13 13 13 13 13 14 14 16 16 15 16 16 16 17 17 17 18 18 19 19 20 20 19 20 20 21 22 22 22 22 22 22 22 23 24 25 26 26 27 28 28
13 13 13 14 13 13 13 13 15 15 15 15 15 15 15 16 16 17 17 17 18 19 19 19 19 20 21 21 22 22 22 23 23 23 22 22 22 24 24 25 26 27 28
12 12 13 13 13 14 13 13 14 14 15 14 13 13 13 13 14 15 16 17 17 17 17 17 18 20 21 21 22 22 23 23 23 23 23 22 22 23 24 25 26 27 27
12 13 12 12 13 12 12 12 12 13 13 13 12 12 13 13 13 14 15 15 15 16 16 16 18 19 20 21 21 21 22 22 22 22 23 23 23 23 23 24 25 26 27
12 12 11 11 12 12 11 11 12 12 12 12 11 12 13 13 13 13 14 14 14 15 15 15 16 18 18 19 19 20 21 22 22 22 22 22 23 23 24 25 26 27 28
11 11 11 11 11 11 11 12 12 12 12 11 11 11 12 13 13 13 13 14 15 15 15 16 17 17 18 18 19 20 21 21 22 22 22 22 23 23 24 25 26 28 29
10 11 11 10 11 11 11 12 13 13 12 12 11 11 12 13 13 13 13 14 15 15 15 17 17 17 18 19 20 21 21 21 21 22 22 23 24 24 25 25 26 27 28
Wind_Direction
318 313 314 308 302 299 305 310 311 311 308 304 303 301 300 299 297 296 298 298 296 296 294 290 286 287 288 286 285 281 275 276 278 275 270 266 262 263 263 261 248 242 238
312 306 306 309 303 297 301 302 302 303 302 300 301 300 298 296 295 295 294 293 292 293 294 291 285 283 283 281 279 277 277 278 275 274 270 266 264 263 260 259 250 244 239
309 303 300 303 303 298 298 297 298 300 299 297 296 297 296 294 294 293 291 289 287 287 288 289 284 281 279 278 277 276 277 276 275 271 267 266 266 265 260 254 252 247 240
311 306 295 296 301 297 294 295 299 297 295 293 293 292 294 295 293 291 291 288 286 285 282 284 280 278 275 275 275 274 271 269 270 267 267 268 268 264 259 253 251 247 242
310 308 303 296 295 294 294 297 299 296 293 291 290 289 292 293 293 291 291 289 285 282 279 281 279 278 275 272 271 271 268 268 267 268 269 269 265 263 261 255 255 251 249
311 305 300 296 293 292 293 295 301 296 292 290 288 286 288 291 290 289 290 289 286 280 277 277 276 274 277 275 271 271 270 268 267 268 269 267 264 263 262 257 256 254 253
314 308 297 289 290 290 289 294 297 293 292 290 287 286 288 287 287 285 286 286 284 282 277 273 272 271 273 274 272 271 272 269 266 268 268 266 265 265 264 260 258 256 256
305 306 300 287 286 290 290 289 291 289 291 289 286 287 288 287 285 283 284 284 281 278 277 272 271 271 272 272 271 270 271 270 266 265 266 265 265 265 263 262 260 258 257
304 302 300 289 290 290 286 285 290 289 293 292 288 287 288 285 284 283 282 280 280 277 275 274 272 271 270 270 270 270 269 267 266 266 267 267 267 266 264 263 263 261 259
306 302 298 296 295 293 295 289 286 289 293 294 289 285 282 282 282 282 282 281 278 274 273 274 273 272 270 270 270 271 270 268 266 265 265 266 267 267 265 263 263 263 260
306 303 297 294 296 296 295 292 286 288 291 290 287 284 283 283 282 280 281 279 277 275 274 273 273 273 270 269 270 271 271 268 265 264 263 263 265 266 265 264 263 263 261
303 300 296 291 295 295 292 292 288 289 290 288 287 285 284 283 281 279 277 276 277 277 275 274 273 273 271 269 270 270 270 267 267 266 264 265 264 264 264 264 263 263 262
299 297 296 294 293 294 293 293 289 288 289 288 289 288 285 282 280 277 275 275 277 278 276 275 274 272 271 271 271 271 269 268 268 267 265 266 264 263 263 262 261 262 263
297 294 294 299 295 294 293 295 293 291 292 290 290 288 284 283 280 277 277 276 276 276 277 275 274 272 272 271 271 270 268 267 268 267 266 265 264 264 263 262 261 262 262
298 294 293 295 297 293 291 291 289 291 293 293 290 287 286 284 280 277 277 278 277 276 276 275 272 271 269 270 271 270 267 268 270 268 266 264 263 263 263 261 260 259 259
298 293 296 301 302 295 288 286 288 289 293 293 291 288 286 283 280 278 277 278 278 277 277 276 272 271 270 270 270 270 269 269 269 267 264 263 262 263 263 261 258 257 259
297 297 297 303 309 303 288 284 286 289 292 291 287 287 286 285 281 280 278 278 278 278 280 280 274 271 273 274 272 269 269 268 267 266 263 262 262 262 261 261 259 258 260
300 305 305 302 304 304 296 286 285 287 289 287 284 286 286 285 282 280 280 279 278 278 278 280 275 275 275 275 274 272 270 269 269 267 263 262 262 261 261 261 260 259 260
305 307 310 307 301 302 302 294 292 291 291 289 287 285 283 284 282 282 279 279 279 278 276 275 274 272 273 277 276 275 273 270 270 268 265 262 262 261 259 260 260 260 261
307 306 307 305 304 303 303 298 295 294 292 287 286 286 283 282 282 282 279 279 277 277 276 273 273 273 275 278 277 276 275 273 273 271 268 264 262 260 260 260 260 260 261
307 305 302 302 304 304 304 302 297 294 292 286 283 285 286 283 282 283 283 280 277 278 278 275 273 275 276 277 278 276 275 274 273 272 271 268 265 263 263 263 262 263 263
310 309 306 305 306 306 306 308 303 299 299 293 286 289 290 289 291 290 289 283 280 281 283 279 275 276 276 278 280 276 273 272 273 274 273 270 268 267 266 265 264 264 264
306 307 308 308 310 312 309 313 315 313 309 302 294 291 292 294 296 297 293 288 286 285 285 283 278 278 278 281 281 277 275 274 275 274 273 272 270 270 268 266 266 265 266
310 308 307 312 316 317 314 316 319 316 311 307 303 296 295 299 298 298 298 295 293 292 289 286 283 282 281 282 281 280 279 278 278 277 275 272 271 270 270 270 269 268 267
310 310 309 313 319 324 321 317 318 316 316 317 314 305 299 300 301 300 302 299 296 295 292 289 289 284 284 285 284 283 283 281 280 277 276 275 274 272 271 271 269 270 269
312 313 312 314 321 325 324 318 314 314 317 318 314 308 304 306 304 303 302 301 300 296 293 292 289 289 289 288 286 285 284 282 281 279 276 274 275 274 273 272 271 271 270
Height
5875 5874 5874 5873 5873 5872 5871 5871 5871 5872 5872 5872 5873 5873 5874 5874 5874 5875 5875 5876 5876 5876 5876 5876 5876 5876 5876 5877 5877 5877 5877 5878 5878 5879 5879 5879 5880 5880 5880 5881 5881 5881 5882
5874 5873 5873 5872 5872 5871 5870 5870 5870 5870 5870 5871 5871 5871 5872 5872 5872 5873 5873 5873 5874 5874 5874 5874 5874 5874 5874 5875 5875 5875 5876 5876 5876 5877 5877 5878 5878 5879 5879 5879 5880 5880 5881
5872 5872 5871 5871 5870 5869 5868 5868 5868 5868 5868 5869 5869 5869 5870 5870 5870 5870 5870 5871 5871 5871 5871 5872 5872 5872 5872 5873 5873 5874 5874 5874 5875 5875 5876 5876 5876 5877 5877 5878 5878 5879 5879
5870 5869 5869 5869 5868 5867 5866 5866 5866 5866 5866 5867 5867 5867 5867 5868 5868 5868 5868 5868 5868 5869 5869 5869 5870 5870 5870 5870 5871 5871 5872 5872 5872 5873 5873 5874 5874 5874 5875 5876 5876 5877 5878
5868 5867 5867 5866 5866 5865 5864 5864 5864 5864 5864 5864 5864 5864 5865 5865 5865 5865 5865 5866 5866 5866 5866 5866 5867 5867 5867 5868 5868 5869 5869 5869 5870 5870 5871 5871 5872 5872 5873 5873 5874 5874 5875
5866 5865 5865 5864 5863 5863 5862 5862 5862 5862 5862 5862 5862 5862 5862 5862 5862 5862 5863 5863 5863 5863 5863 5864 5864 5864 5865 5865 5865 5866 5866 5867 5867 5868 5868 5869 5869 5870 5870 5871 5871 5872 5873
5863 5863 5862 5862 5861 5861 5860 5860 5860 5860 5860 5860 5859 5859 5859 5859 5859 5859 5860 5860 5860 5860 5860 5860 5861 5861 5862 5862 5862 5863 5863 5863 5864 5865 5865 5866 5866 5867 5867 5868 5868 5869 5870
5861 5860 5860 5859 5859 5859 5858 5858 5857 5857 5857 5857 5857 5856 5856 5856 5856 5856 5856 5856 5856 5856 5856 5856 5857 5857 5858 5858 5859 5859 5859 5860 5860 5861 5862 5862 5863 5864 5864 5865 5865 5866 5867
5858 5858 5857 5857 5856 5856 5855 5855 5855 5854 5854 5854 5853 5853 5853 5852 5852 5852 5853 5852 5852 5853 5853 5853 5853 5854 5854 5854 5855 5855 5855 5856 5857 5857 5858 5859 5860 5860 5861 5861 5862 5862 5863
5856 5855 5855 5854 5853 5853 5853 5852 5852 5851 5850 5850 5850 5849 5849 5849 5849 5849 5849 5848 5848 5848 5848 5849 5849 5849 5850 5850 5851 5851 5851 5852 5852 5853 5854 5855 5855 5856 5857 5857 5858 5858 5859
5854 5853 5852 5852 5851 5850 5850 5849 5849 5849 5848 5847 5846 5846 5845 5845 5845 5845 5845 5845 5844 5844 5844 5845 5845 5845 5845 5845 5846 5846 5847 5847 5847 5848 5849 5850 5851 5851 5852 5853 5854 5854 5855
5851 5851 5850 5849 5848 5847 5847 5846 5846 5845 5845 5844 5843 5842 5841 5841 5841 5841 5840 5840 5840 5840 5840 5840 5840 5840 5840 5840 5841 5841 5842 5842 5843 5843 5844 5845 5845 5846 5847 5848 5849 5849 5850
5849 5848 5847 5846 5845 5844 5844 5843 5843 5842 5841 5840 5839 5838 5837 5837 5837 5836 5836 5836 5835 5835 5835 5835 5835 5835 5835 5835 5836 5836 5837 5837 5838 5838 5839 5840 5840 5841 5842 5843 5843 5844 5845
5845 5844 5844 5842 5841 5840 5840 5840 5839 5838 5837 5836 5835 5834 5833 5833 5832 5832 5832 5831 5831 5830 5830 5829 5830 5830 5830 5830 5831 5831 5832 5832 5832 5833 5833 5834 5834 5835 5836 5837 5838 5838 5839
5842 5841 5840 5839 5837 5836 5836 5836 5835 5834 5833 5832 5831 5830 5829 5828 5828 5827 5827 5827 5826 5825 5825 5824 5825 5825 5825 5825 5825 5826 5826 5827 5827 5827 5828 5828 5829 5829 5830 5831 5832 5833 5834
5838 5837 5836 5835 5833 5832 5832 5831 5831 5830 5830 5828 5827 5826 5825 5824 5823 5822 5822 5822 5821 5820 5820 5820 5820 5820 5820 5820 5820 5820 5820 5820 5821 5821 5822 5822 5823 5823 5824 5825 5826 5827 5828
5835 5834 5832 5831 5830 5828 5827 5827 5827 5826 5825 5824 5823 5821 5820 5819 5818 5818 5817 5817 5816 5815 5815 5815 5815 5815 5814 5815 5814 5814 5814 5814 5815 5815 5816 5816 5817 5817 5818 5819 5820 5821 5822
5832 5831 5829 5828 5827 5825 5824 5823 5823 5822 5821 5819 5818 5817 5816 5814 5813 5813 5812 5811 5811 5810 5810 5810 5810 5810 5809 5809 5809 5809 5809 5809 5809 5809 5809 5810 5810 5811 5812 5812 5814 5815 5816
5829 5828 5827 5825 5824 5822 5821 5819 5818 5817 5816 5815 5814 5812 5811 5810 5808 5807 5807 5806 5805 5805 5804 5805 5805 5805 5804 5804 5803 5803 5803 5802 5803 5803 5803 5803 5804 5805 5805 5806 5807 5808 5809
5826 5825 5824 5823 5821 5819 5817 5816 5814 5813 5812 5810 5809 5808 5806 5805 5803 5802 5801 5801 5800 5799 5799 5799 5799 5800 5799 5799 5798 5797 5797 5797 5796 5797 5797 5797 5797 5798 5799 5799 5800 5801 5802
5824 5823 5822 5820 5818 5816 5814 5813 5811 5810 5808 5806 5805 5803 5802 5800 5798 5797 5796 5796 5795 5794 5794 5793 5795 5795 5794 5793 5793 5792 5792 5791 5791 5791 5791 5791 5791 5791 5792 5793 5793 5794 5795
5821 5820 5818 5817 5815 5813 5811 5810 5808 5806 5805 5803 5801 5800 5798 5796 5794 5793 5792 5791 5791 5790 5790 5789 5790 5790 5789 5788 5788 5787 5787 5787 5786 5786 5785 5785 5785 5785 5786 5786 5787 5788 5788
5819 5818 5816 5814 5812 5810 5808 5807 5805 5803 5801 5800 5798 5797 5795 5794 5792 5790 5789 5788 5787 5787 5786 5785 5785 5785 5784 5783 5782 5782 5781 5781 5780 5780 5780 5779 5779 5779 5780 5780 5780 5781 5781
5817 5815 5813 5812 5810 5808 5806 5804 5802 5800 5799 5797 5795 5794 5793 5791 5790 5788 5786 5785 5784 5783 5782 5782 5781 5780 5779 5779 5778 5776 5776 5775 5775 5774 5774 5774 5774 5774 5773 5773 5774 5774 5774
5815 5813 5811 5809 5808 5806 5804 5802 5800 5798 5796 5794 5793 5791 5790 5789 5787 5785 5784 5783 5781 5780 5779 5778 5777 5776 5775 5774 5773 5772 5771 5770 5769 5768 5768 5768 5768 5767 5767 5767 5766 5766 5766
5812 5811 5809 5807 5805 5803 5801 5799 5797 5795 5793 5792 5790 5789 5787 5786 5784 5782 5781 5780 5779 5777 5776 5775 5773 5772 5770 5769 5768 5767 5766 5765 5764 5763 5762 5762 5762 5761 5760 5760 5759 5759 5758